Location: Helsinki
(60.1699°N, 24.9384°E)
Time: 00:24:23
(UTC+02:00)

XW-2F - Visible Passes

Search period start: 29 November 2023 00:00
Search period end: 09 December 2023 00:00
Orbit: 402 x 407 km, 97.4° (Epoch: 28 November)

Date Brightness Start Highest point End Pass type
(mag) Time Alt. Az. Time Alt. Az. Time Alt. Az.
29 Nov ? 07:31:44 10° NNE 07:34:48 44° E 07:37:49 10° S visible
29 Nov ? 16:36:03 10° ENE 16:37:23 12° NE 16:38:42 10° NNE visible
29 Nov ? 18:08:37 70° ENE 18:08:40 70° ENE 18:11:49 10° NNW visible
29 Nov ? 19:41:21 14° W 19:41:21 14° W 19:42:47 10° NW visible
30 Nov ? 06:43:31 10° NE 06:45:31 16° E 06:47:31 10° SE visible
30 Nov ? 17:19:28 24° ENE 17:19:49 24° ENE 17:22:28 10° N visible
30 Nov ? 18:52:11 35° WNW 18:52:11 35° WNW 18:54:34 10° NNW visible
01 Dec ? 07:25:34 10° NNE 07:28:32 37° E 07:31:30 10° S visible
01 Dec ? 16:30:16 10° ENE 16:31:06 11° NE 16:31:57 10° NNE visible
01 Dec ? 18:02:52 49° NNE 18:02:52 49° NNE 18:05:26 10° N visible
01 Dec ? 19:35:34 14° WNW 19:35:34 14° WNW 19:36:35 10° NW visible
02 Dec ? 06:37:15 10° ENE 06:38:55 13° E 06:40:35 10° ESE visible
02 Dec ? 17:13:21 21° NE 17:13:21 21° NE 17:15:41 10° N visible
02 Dec ? 18:46:03 29° NW 18:46:03 29° NW 18:47:54 10° NNW visible
03 Dec ? 07:18:46 10° NNE 07:21:39 32° E 07:24:30 10° SSE visible
03 Dec ? 17:56:22 33° NNE 17:56:22 33° NNE 17:58:23 10° N visible
03 Dec ? 19:29:03 14° NW 19:29:03 14° NW 19:29:44 10° NW visible
04 Dec ? 06:30:32 10° ENE 06:31:40 11° E 06:32:48 10° ESE visible
04 Dec ? 08:00:50 10° NNE 08:04:00 88° ESE 08:07:08 10° SSW visible
04 Dec ? 17:06:30 18° NE 17:06:30 18° NE 17:08:15 10° N visible
04 Dec ? 18:39:10 24° NNW 18:39:10 24° NNW 18:40:36 10° NNW visible
05 Dec ? 07:11:22 10° NE 07:14:07 27° E 07:16:50 10° SSE visible
05 Dec ? 17:49:08 25° N 17:49:08 25° N 17:50:43 10° N visible
05 Dec ? 19:21:47 12° NW 19:21:47 12° NW 19:22:14 10° NW visible
06 Dec ? 07:53:02 10° NNE 07:56:10 72° ESE 07:59:17 10° S visible
06 Dec ? 16:58:56 15° NE 16:58:56 15° NE 17:00:08 10° NNE visible
06 Dec ? 18:31:34 20° NNW 18:31:34 20° NNW 18:32:39 10° NNW visible
07 Dec ? 07:03:23 10° NE 07:05:56 22° E 07:08:28 10° SSE visible
07 Dec ? 17:41:11 19° N 17:41:11 19° N 17:42:22 10° N visible
07 Dec ? 19:13:49 11° NW 19:13:49 11° NW 19:14:03 10° NW visible
08 Dec ? 07:44:37 10° NNE 07:47:42 57° ESE 07:50:48 10° S visible
08 Dec ? 16:50:38 12° NNE 16:50:38 12° NNE 16:51:20 10° NNE visible
08 Dec ? 18:23:15 17° NNW 18:23:15 17° NNW 18:24:03 10° NNW visible
